DW7589 Weather Reports


Display with metric or nautical units.
time (UTC)temp
F
wind
direction
speed
MPH
gust
MPH
rain 1hr
in
rain 24hr
in
rain mn
in
humidity
%
barometer
mb
20180816043007 85 0 0.0 0.0 0.00 0.00 0.00 57 1014.4
20180816042506 85 0 0.0 0.0 0.00 0.00 0.00 57 1014.4
20180816042007 85 0 0.0 0.0 0.00 0.00 0.00 56 1014.3
20180816041507 85 0 0.0 0.0 0.00 0.00 0.00 56 1014.4
20180816040007 85 0 0.0 0.0 0.00 0.00 0.00 55 1014.4
20180816035007 86 0 0.0 0.0 0.00 0.00 0.00 55 1014.3
20180816034007 86 0 0.0 0.0 0.00 0.00 0.00 54 1014.2
20180816033507 86 0 0.0 0.0 0.00 0.00 0.00 53 1014.1
20180816032506 87 0 0.0 0.0 0.00 0.00 0.00 53 1014.0
20180816032007 87 0 0.0 1.0 0.00 0.00 0.00 52 1014.0
20180816031507 87 0 0.0 1.0 0.00 0.00 0.00 52 1013.9
20180816030506 87 0 0.0 0.0 0.00 0.00 0.00 52 1013.8
20180816030007 87 0 0.0 0.0 0.00 0.00 0.00 52 1013.8
20180816025507 88 0 0.0 0.0 0.00 0.00 0.00 51 1013.8
20180816024506 88 0 0.0 0.0 0.00 0.00 0.00 50 1013.5
20180816024007 88 0 0.0 0.0 0.00 0.00 0.00 50 1013.4
20180816023506 89 0 0.0 1.0 0.00 0.00 0.00 50 1013.4
20180816023006 89 0 0.0 1.0 0.00 0.00 0.00 49 1013.3
20180816022506 89 0 0.0 0.0 0.00 0.00 0.00 49 1013.3
20180816021506 90 0 0.0 1.0 0.00 0.00 0.00 48 1013.1
20180816021007 90 0 0.0 1.0 0.00 0.00 0.00 48 1013.2
20180816020007 90 0 0.0 0.0 0.00 0.00 0.00 47 1013.1
20180816015506 90 0 0.0 1.0 0.00 0.00 0.00 47 1013.1
20180816015006 91 0 0.0 1.0 0.00 0.00 0.00 46 1013.0
20180816014507 91 0 0.0 1.0 0.00 0.00 0.00 46 1012.9
20180816014007 91 0 0.0 1.0 0.00 0.00 0.00 45 1012.9
20180816013506 91 0 0.0 1.0 0.00 0.00 0.00 45 1012.9
20180816012507 92 0 0.0 1.0 0.00 0.00 0.00 44 1012.9
20180816012006 92 0 0.0 1.0 0.00 0.00 0.00 44 1013.0
20180816011506 92 0 0.0 1.0 0.00 0.00 0.00 43 1013.0
20180816010507 93 0 0.0 1.0 0.00 0.00 0.00 42 1012.9
20180816010007 93 0 0.0 1.0 0.00 0.00 0.00 42 1012.9
20180816005006 94 0 0.0 2.0 0.00 0.00 0.00 41 1012.8
20180816004007 94 0 0.0 1.0 0.00 0.00 0.00 40 1012.7
20180816003506 95 0 0.0 1.0 0.00 0.00 0.00 40 1012.7
20180816003007 95 0 0.0 1.0 0.00 0.00 0.00 40 1012.7
20180816002507 95 0 0.0 2.0 0.00 0.00 0.00 39 1012.7
20180816001506 96 0 0.0 2.0 0.00 0.00 0.00 37 1012.8
20180816001007 96 0 0.0 3.0 0.00 0.00 0.00 38 1012.8
20180816000507 96 0 0.0 3.0 0.00 0.00 0.00 37 1012.9
20180815234506 97 0 0.0 2.0 0.00 0.00 0.00 37 1012.7
20180815233507 97 0 0.0 2.0 0.00 0.00 0.00 37 1012.8
20180815233007 97 0 0.0 3.0 0.00 0.00 0.00 37 1012.8
20180815232506 97 0 0.0 4.0 0.00 0.00 0.00 37 1012.8
20180815232006 97 0 0.0 4.0 0.00 0.00 0.00 37 1012.8
20180815231507 97 153 1.0 4.0 0.00 0.00 0.00 38 1012.8
20180815230506 97 0 0.0 3.0 0.00 0.00 0.00 38 1012.9
20180815230007 97 0 0.0 2.0 0.00 0.00 0.00 38 1013.0
20180815225006 98 0 0.0 1.0 0.00 0.00 0.00 37 1013.1
20180815223506 98 0 0.0 1.0 0.00 0.00 0.00 35 1013.2
20180815222006 98 0 0.0 4.0 0.00 0.00 0.00 36 1013.3
20180815221506 98 0 0.0 4.0 0.00 0.00 0.00 36 1013.4
20180815220507 98 0 0.0 3.0 0.00 0.00 0.00 37 1013.5
20180815220006 98 0 0.0 2.0 0.00 0.00 0.00 37 1013.5
20180815215506 98 0 0.0 2.0 0.00 0.00 0.00 37 1013.5
20180815214006 98 0 0.0 2.0 0.00 0.00 0.00 38 1013.5
20180815213506 98 0 0.0 1.0 0.00 0.00 0.00 38 1013.5
20180815213007 97 0 0.0 3.0 0.00 0.00 0.00 39 1013.5
20180815212506 98 144 1.0 3.0 0.00 0.00 0.00 38 1013.5
20180815211007 98 0 0.0 3.0 0.00 0.00 0.00 38 1013.7
20180815205506 98 137 1.0 4.0 0.00 0.00 0.00 38 1013.8
20180815205006 98 0 0.0 4.0 0.00 0.00 0.00 38 1013.8
20180815203506 98 0 0.0 4.0 0.00 0.00 0.00 39 1014.0
20180815203006 98 0 0.0 4.0 0.00 0.00 0.00 39 1014.1
20180815202506 97 0 0.0 2.0 0.00 0.00 0.00 40 1014.1
20180815200006 97 0 0.0 1.0 0.00 0.00 0.00 40 1014.5
20180815195006 97 0 0.0 2.0 0.00 0.00 0.00 40 1014.6
20180815194506 96 0 0.0 4.0 0.00 0.00 0.00 40 1014.8
20180815193506 97 0 0.0 3.0 0.00 0.00 0.00 40 1014.9
20180815192506 97 0 0.0 1.0 0.00 0.00 0.00 38 1015.0
20180815191506 96 0 0.0 3.0 0.00 0.00 0.00 41 1015.1
20180815190506 96 193 1.0 10.0 0.00 0.00 0.00 40 1015.2
20180815190007 96 0 0.0 2.0 0.00 0.00 0.00 41 1015.1
20180815185006 94 171 1.0 5.0 0.00 0.00 0.00 42 1015.3
20180815184506 95 171 1.0 5.0 0.00 0.00 0.00 42 1015.4
20180815183006 95 0 0.0 2.0 0.00 0.00 0.00 44 1015.5
20180815181006 94 191 1.0 7.0 0.00 0.00 0.00 45 1015.7
20180815175506 93 0 0.0 2.0 0.00 0.00 0.00 46 1015.8
20180815175006 92 0 0.0 5.0 0.00 0.00 0.00 49 1015.9
20180815173506 92 174 1.0 4.0 0.00 0.00 0.00 49 1015.9
20180815173006 92 161 1.0 3.0 0.00 0.00 0.00 50 1016.0
20180815172506 92 176 1.0 5.0 0.00 0.00 0.00 50 1016.2
20180815172006 92 198 1.0 5.0 0.00 0.00 0.00 50 1016.2
20180815171506 91 0 0.0 3.0 0.00 0.00 0.00 52 1016.3
20180815170006 91 0 0.0 3.0 0.00 0.00 0.00 53 1016.4
20180815165506 90 0 0.0 3.0 0.00 0.00 0.00 54 1016.4
20180815164506 90 0 0.0 4.0 0.00 0.00 0.00 55 1016.4
20180815163506 89 191 1.0 6.0 0.00 0.00 0.00 55 1016.6
20180815155506 87 192 4.0 7.0 0.00 0.00 0.00 60 1016.6
20180815155006 87 198 4.0 7.0 0.00 0.00 0.00 60 1016.6
20180815154006 86 197 3.0 12.0 0.00 0.00 0.00 62 1016.6
20180815153505 86 200 2.0 12.0 0.00 0.00 0.00 64 1016.6
20180815153006 86 184 2.0 8.0 0.00 0.00 0.00 64 1016.5
20180815152506 86 193 2.0 11.0 0.00 0.00 0.00 65 1016.6
20180815152006 85 214 2.0 11.0 0.00 0.00 0.00 66 1016.6
20180815150006 83 192 3.0 11.0 0.00 0.00 0.00 70 1016.7
20180815145505 83 194 2.0 11.0 0.00 0.00 0.00 71 1016.5
20180815145006 82 186 2.0 9.0 0.00 0.00 0.00 72 1016.7
20180815141506 81 172 2.0 6.0 0.00 0.00 0.00 79 1016.1
20180815141006 80 171 2.0 6.0 0.00 0.00 0.00 80 1016.3
20180815140506 80 173 1.0 5.0 0.00 0.00 0.00 82 1016.3
20180815140006 80 167 1.0 5.0 0.00 0.00 0.00 82 1016.4
20180815135005 80 184 1.0 6.0 0.00 0.00 0.00 82 1016.4
20180815134506 80 179 1.0 4.0 0.00 0.00 0.00 83 1016.4
20180815134006 79 181 1.0 4.0 0.00 0.00 0.00 83 1016.4
20180815132505 79 356 1.0 3.0 0.00 0.00 0.00 85 1016.2
20180815132006 79 171 1.0 4.0 0.00 0.00 0.00 85 1016.1
20180815130005 78 163 1.0 4.0 0.00 0.00 0.00 87 1016.1
20180815125506 78 154 1.0 4.0 0.00 0.00 0.00 87 1016.0
20180815122506 77 172 2.0 4.0 0.00 0.00 0.00 88 1015.6
20180815121505 77 169 2.0 4.0 0.00 0.00 0.00 88 1015.5
20180815121005 77 112 1.0 3.0 0.00 0.00 0.00 88 1015.5
20180815120006 77 1 1.0 3.0 0.00 0.00 0.00 88 1015.5
20180815115506 76 1 1.0 3.0 0.00 0.00 0.00 88 1015.3
20180815115005 76 1 1.0 2.0 0.00 0.00 0.00 88 1015.2
20180815114006 76 1 1.0 4.0 0.00 0.00 0.00 88 1015.2
20180815113005 76 1 2.0 4.0 0.00 0.00 0.00 88 1014.9
20180815111506 77 1 1.0 3.0 0.00 0.00 0.00 88 1015.1
20180815105005 77 1 1.0 2.0 0.00 0.00 0.00 87 1015.0
20180815104006 77 147 1.0 3.0 0.00 0.00 0.00 86 1014.9
20180815103506 77 158 1.0 4.0 0.00 0.00 0.00 86 1014.9
20180815103005 77 166 1.0 4.0 0.00 0.00 0.00 86 1014.8
20180815102506 77 166 1.0 4.0 0.00 0.00 0.00 86 1015.0
20180815101506 77 166 1.0 4.0 0.00 0.00 0.00 85 1014.9
20180815101006 78 158 1.0 4.0 0.00 0.00 0.00 85 1015.1
20180815100505 78 162 1.0 4.0 0.00 0.00 0.00 85 1015.2
20180815095506 78 149 1.0 3.0 0.00 0.00 0.00 84 1015.3
20180815093505 78 156 1.0 4.0 0.00 0.00 0.00 83 1015.4
20180815093006 78 71 1.0 3.0 0.00 0.00 0.00 83 1015.5
20180815092505 78 137 1.0 3.0 0.00 0.00 0.00 82 1015.4
20180815091006 79 1 1.0 3.0 0.00 0.00 0.00 82 1015.4
20180815090505 79 0 0.0 3.0 0.00 0.00 0.00 81 1015.4
20180815090005 79 0 0.0 2.0 0.00 0.00 0.00 81 1015.4
20180815085505 79 154 1.0 4.0 0.00 0.00 0.00 80 1015.4
20180815084005 79 163 1.0 4.0 0.00 0.00 0.00 80 1015.2
20180815083506 79 160 1.0 4.0 0.00 0.00 0.00 79 1015.1
20180815082005 80 163 1.0 5.0 0.00 0.00 0.00 78 1015.0
20180815081505 80 162 1.0 4.0 0.00 0.00 0.00 78 1015.1
20180815081006 80 164 1.0 4.0 0.00 0.00 0.00 78 1015.1
20180815080506 80 161 1.0 4.0 0.00 0.00 0.00 77 1014.9
20180815080006 80 160 2.0 5.0 0.00 0.00 0.00 77 1014.9
20180815075505 80 162 2.0 6.0 0.00 0.00 0.00 77 1014.9
20180815074006 81 162 2.0 6.0 0.00 0.00 0.00 76 1014.8
20180815073005 81 154 2.0 5.0 0.00 0.00 0.00 75 1014.6
20180815072506 81 31 2.0 4.0 0.00 0.00 0.00 75 1014.6
20180815071005 81 11 2.0 5.0 0.00 0.00 0.00 74 1014.6
20180815070006 82 15 2.0 7.0 0.00 0.00 0.00 73 1014.4
20180815065505 82 17 2.0 4.0 0.00 0.00 0.00 72 1014.4
20180815065005 82 26 2.0 5.0 0.00 0.00 0.00 72 1014.5
20180815064505 82 12 3.0 6.0 0.00 0.00 0.00 71 1014.5
20180815063505 82 143 3.0 5.0 0.00 0.00 0.00 70 1014.3
20180815062005 83 93 2.0 5.0 0.00 0.00 0.00 69 1014.3
20180815061505 83 37 2.0 4.0 0.00 0.00 0.00 69 1014.4
20180815060506 83 1 3.0 5.0 0.00 0.00 0.00 68 1014.3
20180815055505 84 1 3.0 6.0 0.00 0.00 0.00 67 1014.3
20180815055005 84 1 3.0 5.0 0.00 0.00 0.00 67 1014.5
20180815053506 84 1 3.0 6.0 0.00 0.00 0.00 66 1014.4
20180815053006 84 1 3.0 6.0 0.00 0.00 0.00 66 1014.4
20180815052505 84 1 3.0 5.0 0.00 0.00 0.00 66 1014.3
20180815052005 84 2 3.0 6.0 0.00 0.00 0.00 65 1014.2
20180815051505 84 6 3.0 6.0 0.00 0.00 0.00 65 1014.2
20180815051006 84 5 2.0 5.0 0.00 0.00 0.00 65 1014.2
20180815050006 84 6 3.0 5.0 0.00 0.00 0.00 65 1014.4
20180815045505 85 10 3.0 6.0 0.00 0.00 0.00 64 1014.2
20180815044506 85 82 3.0 5.0 0.00 0.00 0.00 64 1013.9
20180815044006 85 126 3.0 6.0 0.00 0.00 0.00 63 1014.0